{"data":{"norad_id":61858,"epoch":"2026-05-25T02:16:36.748992Z","epoch_age_seconds":77374,"freshness":"FRESH","line1":"1 61858U 24202P   26145.09486978 -.00003023  00000+0 -10042-3 0  9996","line2":"2 61858  43.0011 166.4224 0001321 277.3165  82.7536 15.27568168 87029","mean_motion":15.27568168,"eccentricity":0.0001321,"inclination_deg":43.0011,"raan_deg":166.4224,"arg_perigee_deg":277.3165,"mean_anomaly_deg":82.7536,"bstar":-0.00010042,"rev_number":8702,"period_min":94.267478870377,"perigee_km":482.17815816936,"apogee_km":483.9908928964,"semimajor_km":6861.2215255329,"source":"CELESTRAK","updated_at":"2026-05-25T13:38:19.452351Z"}}